Location: B?lite?ti
(46.2833°N, 22.7333°E)
Time: 16:53:04
(UTC+00:00)

SL-24 R/B - Pass Details

Date: 24 January 2021
Orbit: 625 x 1075 km, 98.0° (Epoch: 28 February)

Event Time Altitude Azimuth Distance (km) Brightness Sun altitude
Rises 15:49:08 0° 163° (SSE) 2,914 7.6 -5.1°
Reaches altitude 10° 15:51:15 10° 162° (SSE) 2,032 6.8 -5.4°
Maximum altitude 15:55:38 83° 76° (ENE) 686 4.2 -6.1°
Drops below altitude 10° 16:00:28 10° 348° (NNW) 2,226 6.8 -6.9°
Sets 16:02:52 0° 348° (NNW) 3,217 7.6 -7.3°
